TimeAKST,TemperatureF,Dew PointF,Humidity,Sea Level PressureIn,VisibilityMPH,Wind Direction,Wind SpeedMPH,Gust SpeedMPH,PrecipitationIn,Events,Conditions,WindDirDegrees,DateUTC
12:02 AM,24.8,23.0,93,30.04,0.2,NE,5.8,-,N/A,Fog,Light Freezing Fog,40,2013-11-15 09:02:00
12:14 AM,24.8,23.0,93,30.03,0.8,NE,4.6,-,N/A,,Mist,50,2013-11-15 09:14:00
12:22 AM,24.8,23.0,93,30.04,2.0,Calm,Calm,-,N/A,,Overcast,0,2013-11-15 09:22:00
12:29 AM,24.8,23.0,93,30.04,10.0,NE,3.5,-,N/A,,Mostly Cloudy,40,2013-11-15 09:29:00
12:46 AM,23.0,21.2,93,30.04,6.0,NE,4.6,-,N/A,,Partly Cloudy,40,2013-11-15 09:46:00
12:53 AM,23.0,21.9,96,30.06,10.0,Calm,Calm,-,N/A,,Clear,0,2013-11-15 09:53:00
1:53 AM,21.9,21.9,100,30.05,10.0,Calm,Calm,-,N/A,,Clear,0,2013-11-15 10:53:00
3:53 AM,21.9,21.0,96,30.06,10.0,ENE,4.6,-,N/A,,Clear,60,2013-11-15 12:53:00
4:53 AM,21.9,21.9,100,30.06,10.0,ENE,4.6,-,N/A,,Clear,70,2013-11-15 13:53:00
5:53 AM,21.0,21.0,100,30.04,10.0,Calm,Calm,-,N/A,,Clear,0,2013-11-15 14:53:00
6:53 AM,21.9,21.0,96,30.04,10.0,NE,4.6,-,N/A,,Clear,50,2013-11-15 15:53:00
7:53 AM,24.1,23.0,96,30.04,10.0,North,4.6,-,N/A,,Partly Cloudy,10,2013-11-15 16:53:00
8:53 AM,25.0,24.1,96,30.04,10.0,NNE,3.5,-,N/A,,Mostly Cloudy,30,2013-11-15 17:53:00
9:53 AM,25.0,25.0,100,30.04,10.0,NNE,5.8,-,N/A,,Overcast,30,2013-11-15 18:53:00
10:53 AM,26.1,25.0,96,30.03,10.0,NNE,5.8,-,N/A,,Overcast,30,2013-11-15 19:53:00
11:53 AM,26.1,25.0,96,30.02,10.0,NE,3.5,-,N/A,,Overcast,50,2013-11-15 20:53:00
12:53 PM,26.1,25.0,96,30.01,10.0,North,4.6,-,N/A,,Mostly Cloudy,10,2013-11-15 21:53:00
1:53 PM,26.1,25.0,96,29.99,10.0,NNE,3.5,-,N/A,,Clear,20,2013-11-15 22:53:00
2:53 PM,26.1,25.0,96,29.98,10.0,NE,5.8,-,N/A,,Clear,50,2013-11-15 23:53:00
3:53 PM,25.0,24.1,96,29.97,10.0,ENE,4.6,-,N/A,,Partly Cloudy,60,2013-11-16 00:53:00
4:53 PM,23.0,21.9,96,29.96,10.0,NE,5.8,-,N/A,,Clear,50,2013-11-16 01:53:00
5:53 PM,21.0,19.9,96,29.96,10.0,Calm,Calm,-,N/A,,Clear,0,2013-11-16 02:53:00
6:53 PM,19.9,19.9,100,29.97,10.0,NNE,4.6,-,N/A,,Clear,20,2013-11-16 03:53:00
7:53 PM,19.9,19.0,96,29.98,10.0,NNE,3.5,-,N/A,,Clear,30,2013-11-16 04:53:00
8:53 PM,18.0,15.1,88,29.99,10.0,North,3.5,-,N/A,,Clear,10,2013-11-16 05:53:00
9:53 PM,19.9,18.0,92,29.99,10.0,North,3.5,-,N/A,,Mostly Cloudy,10,2013-11-16 06:53:00
10:53 PM,18.0,16.0,92,30.01,10.0,Calm,Calm,-,N/A,,Mostly Cloudy,0,2013-11-16 07:53:00
11:53 PM,18.0,17.1,96,30.03,10.0,Calm,Calm,-,N/A,,Overcast,0,2013-11-16 08:53:00